TimeCDT,TemperatureF,Dew PointF,Humidity,Sea Level PressureIn,VisibilityMPH,Wind Direction,Wind SpeedMPH,Gust SpeedMPH,PrecipitationIn,Events,Conditions,WindDirDegrees,DateUTC
12:14 AM,28.4,21.2,74,29.84,10.0,North,5.8,-,N/A,,Clear,350,2013-04-19 05:14:00
12:34 AM,28.4,21.2,74,29.84,10.0,North,9.2,-,N/A,,Clear,360,2013-04-19 05:34:00
12:54 AM,28.4,21.2,74,29.84,10.0,North,6.9,-,N/A,,Clear,10,2013-04-19 05:54:00
1:14 AM,28.4,19.4,69,29.83,10.0,NNE,6.9,-,N/A,,Clear,20,2013-04-19 06:14:00
1:34 AM,28.4,19.4,69,29.83,10.0,NNE,10.4,-,N/A,,Clear,20,2013-04-19 06:34:00
1:54 AM,28.4,19.4,69,29.83,10.0,North,9.2,-,N/A,,Clear,360,2013-04-19 06:54:00
2:15 AM,28.4,19.4,69,29.82,10.0,North,9.2,-,N/A,,Clear,350,2013-04-19 07:15:00
2:34 AM,28.4,19.4,69,29.81,10.0,North,10.4,-,N/A,,Clear,350,2013-04-19 07:34:00
2:54 AM,28.4,19.4,69,29.81,10.0,North,10.4,-,N/A,,Clear,360,2013-04-19 07:54:00
3:15 AM,28.4,19.4,69,29.81,10.0,North,9.2,-,N/A,,Clear,10,2013-04-19 08:15:00
3:34 AM,28.4,19.4,69,29.81,10.0,North,10.4,-,N/A,,Clear,360,2013-04-19 08:34:00
3:54 AM,28.4,19.4,69,29.82,10.0,North,9.2,-,N/A,,Clear,360,2013-04-19 08:54:00
4:15 AM,26.6,19.4,74,29.82,10.0,North,10.4,-,N/A,,Clear,360,2013-04-19 09:15:00
4:34 AM,26.6,19.4,74,29.82,10.0,North,10.4,-,N/A,,Clear,360,2013-04-19 09:34:00
4:54 AM,26.6,17.6,69,29.83,10.0,North,11.5,-,N/A,,Clear,360,2013-04-19 09:54:00
5:15 AM,26.6,17.6,69,29.83,10.0,North,11.5,-,N/A,,Clear,360,2013-04-19 10:15:00
5:54 AM,26.6,17.6,69,29.83,10.0,North,16.1,-,N/A,,Clear,360,2013-04-19 10:54:00
6:14 AM,26.6,17.6,69,29.83,10.0,North,15.0,-,N/A,,Clear,360,2013-04-19 11:14:00
6:34 AM,26.6,17.6,69,29.84,10.0,North,15.0,-,N/A,,Clear,10,2013-04-19 11:34:00
6:54 AM,24.8,17.6,74,29.85,10.0,North,15.0,-,N/A,,Clear,10,2013-04-19 11:54:00
7:15 AM,26.6,15.8,64,29.85,10.0,North,15.0,-,N/A,,Clear,10,2013-04-19 12:15:00
7:34 AM,24.8,15.8,69,29.85,10.0,North,17.3,21.9,N/A,,Clear,10,2013-04-19 12:34:00
7:54 AM,26.6,15.8,64,29.85,10.0,North,19.6,25.3,N/A,,Clear,10,2013-04-19 12:54:00
8:15 AM,26.6,15.8,64,29.85,10.0,North,16.1,24.2,N/A,,Clear,10,2013-04-19 13:15:00
8:34 AM,26.6,15.8,64,29.86,10.0,North,18.4,28.8,N/A,,Clear,10,2013-04-19 13:34:00
8:54 AM,26.6,15.8,64,29.85,10.0,North,18.4,24.2,N/A,,Clear,10,2013-04-19 13:54:00
9:15 AM,26.6,15.8,64,29.86,10.0,NNE,21.9,27.6,N/A,,Clear,20,2013-04-19 14:15:00
9:34 AM,28.4,15.8,59,29.86,10.0,North,16.1,27.6,N/A,,Clear,10,2013-04-19 14:34:00
9:54 AM,28.4,15.8,59,29.87,10.0,NNE,23.0,28.8,N/A,,Clear,20,2013-04-19 14:54:00
10:15 AM,30.2,15.8,55,29.86,10.0,North,18.4,-,N/A,,Clear,10,2013-04-19 15:15:00
10:34 AM,30.2,15.8,55,29.86,10.0,North,16.1,26.5,N/A,,Clear,10,2013-04-19 15:34:00
10:54 AM,30.2,15.8,55,29.86,10.0,NNE,20.7,26.5,N/A,,Clear,20,2013-04-19 15:54:00
11:14 AM,32.0,15.8,51,29.86,10.0,North,20.7,24.2,N/A,,Clear,360,2013-04-19 16:14:00
11:34 AM,32.0,12.2,44,29.87,10.0,North,23.0,26.5,N/A,,Clear,10,2013-04-19 16:34:00
11:54 AM,33.8,15.8,48,29.87,10.0,North,20.7,24.2,N/A,,Clear,10,2013-04-19 16:54:00
12:14 PM,33.8,14.0,44,29.87,10.0,North,23.0,26.5,N/A,,Clear,10,2013-04-19 17:14:00
12:34 PM,33.8,15.8,48,29.87,10.0,North,18.4,24.2,N/A,,Clear,360,2013-04-19 17:34:00
12:54 PM,33.8,12.2,41,29.88,10.0,North,17.3,-,N/A,,Clear,10,2013-04-19 17:54:00
1:14 PM,33.8,10.4,38,29.88,10.0,North,17.3,26.5,N/A,,Clear,350,2013-04-19 18:14:00
1:34 PM,33.8,10.4,38,29.88,10.0,North,16.1,21.9,N/A,,Clear,350,2013-04-19 18:34:00
1:54 PM,33.8,10.4,38,29.88,10.0,North,18.4,26.5,N/A,,Clear,10,2013-04-19 18:54:00
2:14 PM,33.8,10.4,38,29.88,10.0,North,18.4,-,N/A,,Clear,10,2013-04-19 19:14:00
2:34 PM,33.8,10.4,38,29.89,10.0,North,16.1,23.0,N/A,,Clear,10,2013-04-19 19:34:00
2:54 PM,33.8,12.2,41,29.89,10.0,North,20.7,24.2,N/A,,Clear,360,2013-04-19 19:54:00
3:14 PM,33.8,8.6,35,29.89,10.0,North,17.3,25.3,N/A,,Clear,360,2013-04-19 20:14:00
3:34 PM,33.8,12.2,41,29.89,10.0,North,16.1,19.6,N/A,,Clear,360,2013-04-19 20:34:00
3:54 PM,33.8,12.2,41,29.90,10.0,NNW,19.6,-,N/A,,Clear,330,2013-04-19 20:54:00
4:14 PM,33.8,12.2,41,29.90,10.0,North,13.8,21.9,N/A,,Clear,350,2013-04-19 21:14:00
4:34 PM,33.8,10.4,38,29.90,10.0,North,9.2,18.4,N/A,,Clear,360,2013-04-19 21:34:00
4:54 PM,35.6,10.4,35,29.90,10.0,North,13.8,17.3,N/A,,Clear,350,2013-04-19 21:54:00
5:14 PM,35.6,12.2,38,29.91,10.0,North,15.0,-,N/A,,Clear,360,2013-04-19 22:14:00
5:34 PM,33.8,12.2,41,29.92,10.0,NNW,16.1,-,N/A,,Clear,340,2013-04-19 22:34:00
5:54 PM,33.8,12.2,41,29.92,10.0,NNW,15.0,-,N/A,,Clear,340,2013-04-19 22:54:00
6:14 PM,33.8,12.2,41,29.92,10.0,NNW,16.1,-,N/A,,Clear,340,2013-04-19 23:14:00
6:34 PM,33.8,12.2,41,29.93,10.0,North,12.7,-,N/A,,Clear,350,2013-04-19 23:34:00
6:54 PM,33.8,12.2,41,29.94,10.0,NNW,17.3,-,N/A,,Clear,340,2013-04-19 23:54:00
7:14 PM,32.0,14.0,48,29.94,10.0,NNW,11.5,-,N/A,,Clear,340,2013-04-20 00:14:00
7:34 PM,32.0,14.0,48,29.95,10.0,NNW,12.7,-,N/A,,Clear,340,2013-04-20 00:34:00
7:54 PM,30.2,14.0,51,29.95,10.0,NNW,12.7,-,N/A,,Clear,340,2013-04-20 00:54:00
8:14 PM,30.2,14.0,51,29.96,10.0,NW,12.7,-,N/A,,Clear,320,2013-04-20 01:14:00
8:34 PM,30.2,15.8,55,29.97,10.0,NW,12.7,-,N/A,,Clear,320,2013-04-20 01:34:00
8:54 PM,28.4,15.8,59,29.98,10.0,NW,10.4,-,N/A,,Clear,310,2013-04-20 01:54:00
9:14 PM,28.4,15.8,59,29.99,10.0,NW,11.5,-,N/A,,Clear,310,2013-04-20 02:14:00
9:34 PM,28.4,15.8,59,29.99,10.0,NW,11.5,-,N/A,,Clear,320,2013-04-20 02:34:00
9:54 PM,26.6,15.8,64,30.00,10.0,NW,9.2,-,N/A,,Clear,320,2013-04-20 02:54:00
10:15 PM,26.6,14.0,59,30.00,10.0,NW,11.5,-,N/A,,Clear,320,2013-04-20 03:15:00
10:34 PM,26.6,14.0,59,30.01,10.0,NNW,10.4,-,N/A,,Clear,330,2013-04-20 03:34:00
10:54 PM,26.6,14.0,59,30.01,10.0,NNW,10.4,-,N/A,,Clear,330,2013-04-20 03:54:00
11:15 PM,26.6,12.2,55,30.01,10.0,NNW,10.4,-,N/A,,Clear,330,2013-04-20 04:15:00
11:34 PM,24.8,14.0,64,30.02,10.0,NW,8.1,-,N/A,,Clear,320,2013-04-20 04:34:00